Meteo pe oră la Almamellék

Astăzi, 21 Ianuarie, Joi

Timp Temperatura Precipitaţii Vânt Presiune Umiditate
00:00 +2°C° 0 mm 6 m/s 746 mmHg 80%
01:00 +3°C° 0 mm 6 m/s 746 mmHg 79%
02:00 +3°C° 0 mm 6 m/s 746 mmHg 79%
03:00 +3°C° 0 mm 5 m/s 745 mmHg 79%
04:00 +3°C° 0 mm 5 m/s 745 mmHg 79%
05:00 +3°C° 0 mm 5 m/s 745 mmHg 79%
06:00 +3°C° 0 mm 5 m/s 745 mmHg 80%
07:00 +3°C° 0 mm 5 m/s 744 mmHg 80%
08:00 +4°C° 0 mm 6 m/s 745 mmHg 77%
09:00 +5°C° 0 mm 6 m/s 745 mmHg 74%
10:00 +7°C° 0 mm 6 m/s 745 mmHg 71%
11:00 +8°C° 0 mm 6 m/s 745 mmHg 69%
12:00 +9°C° 0 mm 7 m/s 745 mmHg 66%
13:00 +10°C° 0 mm 7 m/s 745 mmHg 63%
14:00 +10°C° 0 mm 7 m/s 745 mmHg 66%
15:00 +9°C° 0 mm 6 m/s 744 mmHg 69%
16:00 +9°C° 0 mm 5 m/s 744 mmHg 72%
17:00 +8°C° 0 mm 5 m/s 744 mmHg 76%
18:00 +7°C° 0 mm 4 m/s 744 mmHg 79%
19:00 +6°C° 0 mm 4 m/s 744 mmHg 83%
20:00 +6°C° 0 mm 4 m/s 744 mmHg 81%
21:00 +6°C° 0 mm 4 m/s 744 mmHg 80%
22:00 +6°C° 0 mm 4 m/s 744 mmHg 78%
23:00 +6°C° 0 mm 4 m/s 744 mmHg 79%

Mâine, 22 Ianuarie, Vineri

Timp Temperatura Precipitaţii Vânt Presiune Umiditate
00:00 +5°C° 0 mm 4 m/s 743 mmHg 80%
01:00 +5°C° 0 mm 4 m/s 743 mmHg 80%
02:00 +5°C° 0 mm 4 m/s 742 mmHg 81%
03:00 +5°C° 0 mm 4 m/s 742 mmHg 81%
04:00 +5°C° 0 mm 4 m/s 741 mmHg 81%
05:00 +5°C° 0 mm 5 m/s 741 mmHg 81%
06:00 +5°C° 0 mm 5 m/s 741 mmHg 81%
07:00 +5°C° 0 mm 5 m/s 741 mmHg 81%
08:00 +6°C° 0 mm 5 m/s 740 mmHg 78%
09:00 +7°C° 0 mm 5 m/s 740 mmHg 76%
10:00 +8°C° 0 mm 5 m/s 740 mmHg 73%
11:00 +9°C° 0.1 mm 5 m/s 740 mmHg 73%
12:00 +10°C° 0.1 mm 6 m/s 739 mmHg 73%
13:00 +10°C° 0.1 mm 6 m/s 739 mmHg 72%
14:00 +10°C° 0 mm 5 m/s 739 mmHg 74%
15:00 +10°C° 0 mm 5 m/s 738 mmHg 75%
16:00 +10°C° 0 mm 5 m/s 738 mmHg 76%
17:00 +9°C° 0 mm 5 m/s 738 mmHg 79%
18:00 +8°C° 0 mm 5 m/s 737 mmHg 81%
19:00 +8°C° 0 mm 4 m/s 737 mmHg 83%
20:00 +7°C° 0 mm 4 m/s 737 mmHg 83%
21:00 +7°C° 0 mm 4 m/s 737 mmHg 83%
22:00 +7°C° 0 mm 4 m/s 736 mmHg 84%
23:00 +7°C° 0 mm 5 m/s 736 mmHg 82%

Poimâine, 23 Ianuarie, Sâmbătă

Timp Temperatura Precipitaţii Vânt Presiune Umiditate
00:00 +7°C° 0 mm 5 m/s 735 mmHg 81%
01:00 +7°C° 0 mm 5 m/s 735 mmHg 80%
02:00 +8°C° 0 mm 6 m/s 734 mmHg 78%
03:00 +8°C° 0 mm 6 m/s 733 mmHg 76%
04:00 +8°C° 0 mm 7 m/s 732 mmHg 74%
05:00 +8°C° 0 mm 7 m/s 732 mmHg 74%
06:00 +8°C° 0 mm 7 m/s 732 mmHg 74%
07:00 +8°C° 0 mm 7 m/s 732 mmHg 74%
08:00 +8°C° 0.1 mm 7 m/s 732 mmHg 74%
09:00 +9°C° 0.1 mm 6 m/s 732 mmHg 73%
10:00 +9°C° 0.1 mm 6 m/s 732 mmHg 73%
11:00 +9°C° 0.1 mm 6 m/s 732 mmHg 71%
12:00 +10°C° 0.1 mm 6 m/s 731 mmHg 70%
13:00 +10°C° 0.1 mm 6 m/s 731 mmHg 69%
14:00 +10°C° 0.2 mm 6 m/s 731 mmHg 69%
15:00 +9°C° 0.2 mm 5 m/s 731 mmHg 69%
16:00 +10°C° 0.2 mm 4 m/s 731 mmHg 69%
17:00 +8°C° 0 mm 4 m/s 731 mmHg 73%
18:00 +8°C° 0 mm 3 m/s 732 mmHg 77%
19:00 +7°C° 0 mm 2 m/s 732 mmHg 81%
20:00 +6°C° 0.1 mm 2 m/s 732 mmHg 82%
21:00 +6°C° 0.1 mm 2 m/s 732 mmHg 83%
22:00 +5°C° 0.1 mm 3 m/s 732 mmHg 85%
23:00 +4°C° 0.3 mm 3 m/s 732 mmHg 86%

24 Ianuarie, Duminică

Timp Temperatura Precipitaţii Vânt Presiune Umiditate
00:00 +4°C° 0.3 mm 3 m/s 732 mmHg 88%
01:00 +3°C° 0.3 mm 3 m/s 732 mmHg 90%
02:00 +3°C° 1.5 mm 3 m/s 732 mmHg 91%
03:00 +3°C° 1.5 mm 3 m/s 732 mmHg 92%
04:00 +3°C° 1.5 mm 3 m/s 732 mmHg 93%
05:00 +3°C° 0.6 mm 3 m/s 732 mmHg 94%
06:00 +4°C° 0.6 mm 2 m/s 732 mmHg 94%
07:00 +4°C° 0.6 mm 2 m/s 733 mmHg 94%
08:00 +3°C° 0.1 mm 3 m/s 733 mmHg 94%
09:00 +2°C° 0.1 mm 3 m/s 734 mmHg 94%
10:00 +1°C° 0.1 mm 4 m/s 734 mmHg 93%
11:00 +1°C° 0 mm 4 m/s 735 mmHg 87%
12:00 +3°C° 0 mm 3 m/s 735 mmHg 81%
13:00 +3°C° 0 mm 3 m/s 735 mmHg 75%
14:00 +4°C° 0 mm 2 m/s 736 mmHg 74%
15:00 +4°C° 0 mm 2 m/s 736 mmHg 73%
16:00 +5°C° 0 mm 1 m/s 736 mmHg 72%
17:00 +4°C° 0 mm 1 m/s 736 mmHg 75%
18:00 +4°C° 0 mm 1 m/s 737 mmHg 77%
19:00 +3°C° 0 mm 1 m/s 737 mmHg 80%
20:00 +2°C° 0 mm 2 m/s 736 mmHg 80%
21:00 +1°C° 0 mm 3 m/s 736 mmHg 80%
22:00 +1°C° 0 mm 3 m/s 735 mmHg 80%
23:00 +1°C° 0.2 mm 3 m/s 735 mmHg 82%

25 Ianuarie, Luni

Timp Temperatura Precipitaţii Vânt Presiune Umiditate
00:00 0°C° 0.2 mm 4 m/s 734 mmHg 84%
01:00 -1°C° 0.2 mm 4 m/s 734 mmHg 86%
02:00 -1°C° 0.2 mm 5 m/s 733 mmHg 85%
03:00 -2°C° 0.2 mm 6 m/s 732 mmHg 84%
04:00 -2°C° 0.2 mm 7 m/s 731 mmHg 83%
05:00 -2°C° 0.7 mm 8 m/s 731 mmHg 83%
06:00 -3°C° 0.7 mm 9 m/s 731 mmHg 84%
07:00 -3°C° 0.7 mm 9 m/s 731 mmHg 85%
08:00 -3°C° 0.3 mm 10 m/s 732 mmHg 79%
09:00 -3°C° 0.3 mm 10 m/s 732 mmHg 74%
10:00 -3°C° 0.3 mm 10 m/s 733 mmHg 68%
11:00 -2°C° 0 mm 10 m/s 733 mmHg 64%
12:00 -2°C° 0 mm 10 m/s 734 mmHg 60%
13:00 -2°C° 0 mm 10 m/s 734 mmHg 56%
14:00 -1°C° 0 mm 9 m/s 735 mmHg 57%
15:00 -1°C° 0 mm 8 m/s 736 mmHg 58%
16:00 -1°C° 0 mm 8 m/s 736 mmHg 59%
17:00 -1°C° 0 mm 7 m/s 737 mmHg 61%
18:00 -1°C° 0 mm 7 m/s 738 mmHg 64%
19:00 -1°C° 0 mm 6 m/s 739 mmHg 66%
20:00 -2°C° 0 mm 6 m/s 739 mmHg 67%
21:00 -1°C° 0 mm 5 m/s 740 mmHg 68%
22:00 -1°C° 0 mm 5 m/s 741 mmHg 68%
23:00 -1°C° 0 mm 4 m/s 741 mmHg 70%

26 Ianuarie, Marţi

Timp Temperatura Precipitaţii Vânt Presiune Umiditate
00:00 -2°C° 0 mm 4 m/s 741 mmHg 71%
01:00 -2°C° 0 mm 4 m/s 741 mmHg 72%
02:00 -1°C° 0 mm 3 m/s 742 mmHg 73%
03:00 -1°C° 0 mm 3 m/s 742 mmHg 75%
04:00 -1°C° 0 mm 3 m/s 742 mmHg 76%
05:00 -2°C° 0 mm 3 m/s 742 mmHg 77%
06:00 -2°C° 0 mm 3 m/s 743 mmHg 78%
07:00 -2°C° 0 mm 3 m/s 743 mmHg 79%
08:00 -1°C° 0 mm 3 m/s 744 mmHg 72%
09:00 0°C° 0 mm 4 m/s 744 mmHg 66%
10:00 +1°C° 0 mm 4 m/s 745 mmHg 59%
11:00 +2°C° 0 mm 5 m/s 745 mmHg 56%
12:00 +3°C° 0 mm 5 m/s 745 mmHg 52%
13:00 +5°C° 0 mm 5 m/s 745 mmHg 49%
14:00 +4°C° 0 mm 4 m/s 745 mmHg 53%
15:00 +4°C° 0 mm 3 m/s 745 mmHg 57%
16:00 +4°C° 0 mm 2 m/s 745 mmHg 61%
17:00 +3°C° 0 mm 2 m/s 744 mmHg 65%
18:00 +2°C° 0 mm 2 m/s 744 mmHg 70%
19:00 +1°C° 0 mm 2 m/s 743 mmHg 74%
20:00 +1°C° 0 mm 3 m/s 742 mmHg 74%
21:00 0°C° 0 mm 4 m/s 742 mmHg 73%
22:00 0°C° 0 mm 4 m/s 741 mmHg 73%
23:00 0°C° 0 mm 5 m/s 740 mmHg 76%
Arată mai mult

Formular de consimțământ

Meteoprog și furnizorii noștri de servicii pot stoca și accesa date personale, precum cookies, identificatori de dispozitiv sau alte tehnologii similare pe dispozitivul dumneavoastră și procesa astfel de date pentru a personaliza conținutul și reclamele, dar și pentru a oferi caracteristici de social media și pentru a analiza traficul.

  • Stocarea și/sau accesarea informațiilor pe dispozitivul dumneavoastră

    Cookies, identificatori de dispozitiv sau alte informații pot fi stocate sau accesate pe dispozitiv în scopurile indicate mai sus.

  • Reclame și conținut personalizat, evaluarea reclamelor și a conținutului, informații despre audiențe și dezvoltarea produselor

    Reclamele și conținutul pot fi personalizate pe baza unui profil. Pot fi adăugate date suplimentare pentru a personaliza mai bine reclamele și conținutul. Performanța reclamelor și conținutului poate fi măsurată. Pot fi obținute informații despre utilizatorii care au văzut reclamele și conținutul. Aceste date pot fi utilizate pentru a dezvolta sau îmbunătăți experiența utilizatorilor, sistemele și software-ul.

Dând clic pe ‘Sunt de acord’, permiteți utilizarea cookie-urilor menționate, a identificatorilor de dispozitiv, balizelor web sau altor tehnologii similare. Setările pot fi modificate din browser-ul dispozitivului dumneavoastră.

În anumite scopuri, interesele legitime pot prima asupra consimțământului. Puteți citi mai multe informații în acest sens în Politica privind Confidențialitatea Datelor și Cookie.